Regional Weather Roundup
Issued by NWS

Home | Current Version | Previous Version | Text Only | Print | Product List | Glossary Off
Versions: 1 2 3 4 5 6 7 8 9 10 11 12 13 14 15 16 17 18 19 20 21 22 23 24 25 26 27 28 29 30 31 32 33 34 35 36 37 38 39 40 41 42 43 44 45 46 47 48 49 50

000
ASUS43 KLOT 290004
RWRIL

ILLINOIS REGIONAL WEATHER ROUNDUP
NATIONAL WEATHER SERVICE CHICAGO/ROMEOVILLE IL
700 PM CDT WED JUN 28 2017

NOTE: "FAIR" INDICATES FEW OR NO CLOUDS BELOW 12,000 FEET WITH NO
SIGNIFICANT WEATHER AND/OR OBSTRUCTIONS TO VISIBILITY.

* THESE STATIONS ARE NOT UNDER NWS QUALITY CONTROL. THEY ALSO MAY NOT
  REPORT WEATHER SUCH AS PRECIPITATION OR FOG.

ILZ001-002-007-009-015-016-024-290100-
NORTHWEST ILLINOIS

CITY           SKY/WX    TMP DP  RH WIND       PRES   REMARKS
MOLINE         PTSUNNY   81  68  64 S13       29.71F HX  84
6HR MIN TEMP:  75; 6HR MAX TEMP:  83; 6HR PCP:  0.01;

STERLING*      PTSUNNY   78  67  68 VRB7      29.73F HX  80
SAVANNA*       FAIR      77  69  75 S21G31    29.66F
$$

ILZ003-004-008-010-011-017-018-290100-
NORTH CENTRAL ILLINOIS

CITY           SKY/WX    TMP DP  RH WIND       PRES   REMARKS
ROCKFORD       CLOUDY    77  66  68 S17       29.73F
6HR MIN TEMP:  70; 6HR MAX TEMP:  78; 6HR PCP:  0.28;

FREEPORT*      FAIR      74  66  75 S20G25    29.71F
ROCHELLE*      FAIR      75  66  74 S18       29.77R
DE KALB*       PTSUNNY   74  66  75 S17       29.79S
PERU*          FAIR      78  64  60 S17G23    29.79R HX  80
$$

ILZ005-006-012>014-019>023-290100-
NORTHEAST ILLINOIS

CITY           SKY/WX    TMP DP  RH WIND       PRES   REMARKS
CHICAGO-OHARE  PTSUNNY   78  61  55 S22G28    29.77F HX  80
6HR MIN TEMP:  65; 6HR MAX TEMP:  80; 6HR PCP: TRACE;

CHICAGO-MIDWAY PTSUNNY   78  62  57 S15G25    29.78S HX  80
6HR MIN TEMP:  67; 6HR MAX TEMP:  83; 6HR PCP:  0.02;

AURORA         FAIR      77  66  68 S18G25    29.78F
6HR MIN TEMP:  67; 6HR MAX TEMP:  81; 6HR PCP:  0.04;

LANSING*       FAIR      80  57  45 S24G30    29.81F HX  80
JOLIET*        PTSUNNY   81  65  58 S10G22    29.80R HX  83
WAUKEGAN       PTSUNNY   75  63  66 S22       29.75F
6HR MIN TEMP:  65; 6HR MAX TEMP:  75; 6HR PCP:  0.07;

DUPAGE AIRPORT PTSUNNY   76  65  68 S16G24    29.77S
6HR MIN TEMP:  66; 6HR MAX TEMP:  78; 6HR PCP:  0.01;

WHEELING       PTSUNNY   75  65  70 S14       29.78F
6HR MIN TEMP:  65; 6HR MAX TEMP:  78; 6HR PCP:  0.01;

MORRIS*        PTSUNNY   79  64  58 S18G24    29.78S HX  81
ROMEOVILLE*    CLOUDY    77  62  59 S18G25    29.79R
$$

LMZ740>746-290100-
SOUTHERN LAKE MICHIGAN

STATION/POSITION SKY/WX   TEMP    WIND        PRES    VSBY  WAVE
                          AIR SEA DIR/SP/G                  HT/PER
                          (F)     (DEG/KT/KT) (MB)    (MI)  (FT/S)
SOUTHERN BUOY              66 60  160/ 21/ 23 1008.1          4/ 5
WILMETTE HARBOR            73 62  200/ 16/ 23   N/A           3/ 4
HARRISON CRIB              76     200/ 19/ 21   N/A
BURNHAM HARBOR             78                   N/A
CALUMET HARBOR             77     170/ 13/ 20 1007.9F
BURNS HARBOR               79     180/ 17/ 27 1008.8F
MICHIGAN CITY              78     170/ 24/ 30   N/A
MICHIGAN CITY 6N           75 66  180/ 23/ 31   N/A           3/ 3
ST. JOSEPH                 75 67  190/ 19/ 27 1009.1F         3/ 3
$$

ILZ025>027-034>036-040-047-049-050-058-095>099-290100-
WEST-CENTRAL ILLINOIS

CITY           SKY/WX    TMP DP  RH WIND       PRES   REMARKS
QUINCY         FAIR      84  63  49 S13       29.79R HX  85
GALESBURG*     CLOUDY    81  65  58 S12G18    29.78S HX  82
MACOMB*        FAIR      83  62  49 S14G22    29.80S HX  83
JACKSONVILLE*  FAIR      84  64  50 S14G22    29.82R HX  85
PITTSFIELD*    FAIR      84  64  51 S8        29.83R HX  85
$$

ILZ028>032-037-038-041>044-048-051>054-059>061-290100-
CENTRAL ILLINOIS

CITY           SKY/WX    TMP DP  RH WIND       PRES   REMARKS
PONTIAC        FAIR      82  62  51 S16G26    29.83S HX  82
BLOOMINGTON    FAIR      81  64  56 S24       29.84S HX  82
DECATUR        FAIR      82  61  48 S16G24    29.86F HX  83
PEORIA         PTSUNNY   83  62  49 S17G28    29.79R HX  84
6HR MIN TEMP:  79; 6HR MAX TEMP:  86;

LACON*         FAIR      80  64  58 S14G20    29.78R HX  82
LINCOLN*       FAIR      83  64  53 S17G26    29.83R HX  84
SPRINGFIELD    FAIR      85  65  51 S17G24    29.83F HX  86
6HR MIN TEMP:  81; 6HR MAX TEMP:  87;

TAYLORVILLE    FAIR      82  63  52 S13G26    29.85F HX  83
6HR MIN TEMP:  78; 6HR MAX TEMP:  84;

$$

ILZ033-039-045-046-055>057-062-063-290100-
EAST-CENTRAL ILLINOIS

CITY           SKY/WX    TMP DP  RH WIND       PRES   REMARKS
CHAMPAIGN      FAIR      82  59  45 S20G30    29.87F HX  82
MATTOON        FAIR      81  64  56 S14G24    29.90F HX  82
PARIS*         FAIR      79  64  59 S14G22    29.92F HX  81
$$

ILZ079-100>102-290100-
SOUTHWEST ILLINOIS

CITY           SKY/WX    TMP DP  RH WIND       PRES   REMARKS
BELLEVILLE     FAIR      84  65  52 SW17      29.87F HX  86
CAHOKIA*       FAIR      86  59  39 S13G23    29.85F HX  85
SPARTA*        FAIR      83  64  50 S15G22    29.91S HX  85
$$

ILZ064>066-069>071-074>076-080>082-084>086-088>090-092>094-290100-
SOUTH-CENTRAL ILLINOIS

CITY           SKY/WX    TMP DP  RH WIND       PRES   REMARKS
CARBONDALE     FAIR      83  66  56 S16       29.93F HX  85
6HR MIN TEMP:  82; 6HR MAX TEMP:  86;

CAIRO*         FAIR      83  64  51 S12       29.94F HX  84
EFFINGHAM*     FAIR      82  64  52 SE9       29.92F HX  84
MT. VERNON     FAIR      83  65  54 S14G21    29.92F HX  85
CENTRALIA*     FAIR      84  65  52 S17       29.90S HX  85
SALEM*         FAIR      84  62  47 S14G20    29.90S HX  84
METROPOLIS*    HVY RAIN  82  64  54 S6        29.96F HX  84
$$

ILZ067-068-072-073-078-083-087-091-290100-
SOUTHEAST ILLINOIS

CITY           SKY/WX    TMP DP  RH WIND       PRES   REMARKS
LAWRENCEVILLE  FAIR      81  62  52 S16       29.95F HX  82
FLORA*         FAIR      84  63  49 S23       29.91F HX  85
FAIRFIELD*     FAIR      82  64  54 S12       29.92F HX  84
HARRISBURG*    FAIR      82  66  58 S9        29.96S HX  84
ROBINSON*      FAIR      80  62  54 S6        29.94F HX  81
CARMI*         FAIR      82  66  58 S13       29.95S HX  84
$$

ABBREVIATIONS USED IN REMARKS
   TC - TEMPERATURE IN CELSIUS
  WCI - WIND CHILL INDEX
   HX - HEAT INDEX
  VSB - VISIBILITY
$$




USA.gov is the U.S. government's official web portal to all federal, state and local government web resources and services.